ROMMA est une association bénévole à but non lucratif. Votre soutien est indispensable : ADHERER à ROMMA ou FAIRE un DON

Tourrette-Levens - (06, Alpes-Maritimes)

Côte-d'Azur (416 m)   Longitude: 07° 16' 12" E   Latitude: 43° 47' 24" N Station partenaire n°152
 

Détail journalier du     <<     >>

Température Precipitation Humidité Pression Vent Dir Rafale Dir. rafale Ensol.
Heure (°C) (mm) (%) (hPa) (km/h) (km/h) (min)
01:00 10.704710153NNE19NE0
02:00 11.204610153NNE18O0
03:00 10.604510154NNE18N0
04:00 10.803810144ONO19NO0
05:00 9.903910142OSO18O0
06:00 9.503810143ENE18O0
07:00 10.003610153NNE16ONO0
08:00 11.803410155ONO19ONO0
09:00 13.503410155NE16O42
10:00 13.903210164SSO18SSO59
11:00 15.703910165ESE18S60
12:00 16.903510167ESE23SSE60
13:00 16.804010169ESE26SE56
14:00 15.704410168ESE26S31
15:00 16.404310167ESE23E33
16:00 15.004810169SSE26SSE58
17:00 13.904810168SSE24SSE60
18:00 12.605410175SSE19SSE21
19:00 11.206110173ESE11ESE0
20:00 9.607210172OSO11SSE0
21:00 8.407410172NO5ONO0
22:00 7.90761018000
23:00 7.6079101805O0
minuit 7.807810171SO5OSO0

Graphique du 29-04-2019

 

Serveur OMMA